Date_and_time,latitude,longitude,wind_speed,RelWindDirFrom,WindDirFrom,air_pressure,air_temperature,relative_humidity,Temp,platform_speed_wrt_ground,air_pressure_at_mean_sea_level,platform_orientation
2019-04-14 23:50,50.6304466666667,-96.9807683333333,12.0,13.9,154,981.32,4.3,59,2.55,0.0,1008.52,90.0
2019-04-15 00:00,50.6304466666667,-96.9807683333333,10.8,12.9,157,981.29,3.9,61,2.54,0.0,1008.51,360.0
2019-04-15 00:10,50.6304483333333,-96.98077,10.4,12.3,162,981.22,3.7,61,2.53,0.0,1008.45,360.0
2019-04-15 00:20,50.6304316666667,-96.9807916666667,9.6,10.9,160,981.17,3.6,62,2.52,0.0,1008.40,360.0
2019-04-15 00:30,50.6304566666667,-96.9808,9.0,10.9,164,981.13,3.4,63,2.51,0.0,1008.36,360.0
2019-04-15 00:40,50.63045,-96.9807683333333,8.3,9.7,163,981.11,3.4,63,2.49,0.0,1008.35,360.0
2019-04-15 00:50,50.6304466666667,-96.9807683333333,8.1,9.6,164,981.07,3.7,62,2.47,0.0,1008.33,360.0
2019-04-15 01:00,50.6304466666667,-96.9807716666667,9.2,10.3,168,981.04,4.1,60,2.46,0.0,1008.28,192.6
2019-04-15 01:10,50.6304416666667,-96.9807816666667,8.5,9.6,172,980.99,4.3,59,2.47,0.0,1008.20,192.6
2019-04-15 01:20,50.6304433333333,-96.9807733333333,6.2,7.3,176,980.97,4.6,58,2.47,0.0,1008.17,192.6
2019-04-15 01:30,50.6304466666667,-96.9807766666667,6.0,7.8,180,980.98,5.0,58,2.48,0.0,1008.16,192.6
2019-04-15 01:40,50.630445,-96.980775,7.5,9.9,181,980.96,5.0,61,2.48,0.0,1008.16,192.6
2019-04-15 01:50,50.630445,-96.9807733333333,8.2,10.7,176,980.93,5.2,61,2.50,0.0,1008.14,192.6
2019-04-15 02:00,50.6304483333333,-96.9807733333333,8.6,9.6,174,980.93,5.1,60,2.52,0.0,1008.15,270.0
2019-04-15 02:10,50.63044,-96.9807833333333,8.6,10.2,171,980.95,4.9,61,2.55,0.0,1008.19,270.0
2019-04-15 02:20,50.63044,-96.9807783333333,9.1,11.0,178,981.00,4.7,61,2.57,0.0,1008.26,270.0
2019-04-15 02:30,50.63044,-96.9807716666667,10.5,14.7,188,980.95,5.1,62,2.59,0.0,1008.19,270.0
2019-04-15 02:40,50.6304433333333,-96.9807733333333,8.4,11.5,186,980.90,4.7,67,2.58,0.0,1008.14,270.0
2019-04-15 02:50,50.630445,-96.9807716666667,7.3,9.3,183,980.92,4.4,69,2.47,0.0,1008.15,270.0
2019-04-15 03:00,50.6304616666667,-96.9807716666667,7.4,8.8,185,980.99,4.2,70,2.42,0.0,1008.23,360.0
2019-04-15 03:10,50.6304366666667,-96.980775,6.6,7.8,183,981.01,4.1,71,2.42,0.0,1008.24,360.0
2019-04-15 03:20,50.630445,-96.98077,6.8,9.1,171,981.01,3.8,71,2.43,0.0,1008.23,360.0
2019-04-15 03:30,50.63045,-96.9807683333333,8.4,10.5,173,981.02,3.3,72,2.45,0.0,1008.26,360.0
2019-04-15 03:40,50.63045,-96.98077,9.1,10.9,171,980.93,3.2,75,2.48,0.0,1008.18,360.0
2019-04-15 03:50,50.6304516666667,-96.980775,8.3,10.3,171,980.79,3.2,77,2.52,0.0,1008.03,360.0
2019-04-15 04:00,50.630435,-96.98078,7.4,8.8,158,980.77,2.5,81,2.54,0.0,1008.06,216.6
2019-04-15 04:10,50.6304533333333,-96.9807733333333,7.7,9.4,163,980.78,1.7,90,2.57,0.0,1008.12,216.6
2019-04-15 04:20,50.6304433333333,-96.98078,6.9,9.2,155,980.73,1.2,97,2.59,0.0,1008.08,216.6
2019-04-15 04:30,50.6304483333333,-96.9807783333333,8.5,9.3,147,980.65,0.8,99,2.60,0.0,1008.04,216.6
2019-04-15 04:40,50.63045,-96.9807716666667,7.8,8.9,157,980.58,0.6,100,2.62,0.0,1007.98,216.6
2019-04-15 04:50,50.6304483333333,-96.98077,7.8,8.8,162,980.64,0.4,100,2.62,0.0,1008.07,216.6
2019-04-15 05:00,50.63046,-96.9807766666667,7.8,9.1,160,980.64,0.4,100,2.63,0.0,1008.08,360.0
2019-04-15 05:10,50.63045,-96.9807783333333,9.0,12.3,162,980.54,0.6,100,2.63,0.0,1007.97,360.0
2019-04-15 05:20,50.6304483333333,-96.9807766666667,8.9,10.4,161,980.58,1.0,100,2.63,0.0,1008.02,360.0
2019-04-15 05:30,50.6304483333333,-96.9807733333333,9.1,10.9,158,980.55,1.0,100,2.64,0.0,1007.99,360.0
2019-04-15 05:40,50.6304483333333,-96.9807816666667,9.6,11.8,153,980.44,1.1,101,2.63,0.0,1007.88,360.0
2019-04-15 05:50,50.63045,-96.9807783333333,9.4,11.2,158,980.36,1.0,101,2.56,0.0,1007.83,360.0
2019-04-15 06:00,50.6304516666667,-96.980775,9.0,11.0,156,980.27,0.9,101,2.33,0.0,1007.78,360.0
2019-04-15 06:10,50.63045,-96.9807716666667,10.2,11.8,146,980.10,1.0,101,2.21,0.0,1007.63,360.0
2019-04-15 06:20,50.63045,-96.9807716666667,11.2,12.2,144,979.95,1.1,101,2.15,0.0,1007.50,360.0
2019-04-15 06:30,50.6304483333333,-96.9807733333333,9.5,12.1,151,979.91,0.9,101,2.13,0.0,1007.47,360.0
2019-04-15 06:40,50.6304483333333,-96.9807716666667,10.5,11.9,141,979.76,0.7,101,2.14,0.0,1007.35,360.0
2019-04-15 06:50,50.6304466666667,-96.9807716666667,11.4,13.4,140,979.67,0.8,101,2.13,0.0,1007.24,360.0
2019-04-15 07:00,50.630445,-96.9807716666667,11.5,13.1,142,979.57,1.1,101,2.13,0.0,1007.11,60.8
2019-04-15 07:10,50.63044,-96.980765,11.6,13.3,141,979.50,1.0,100,2.10,0.0,1007.02,60.8
2019-04-15 07:20,50.63044,-96.9807666666667,11.6,13.5,141,979.41,1.0,100,2.06,0.0,1006.93,60.8
2019-04-15 07:30,50.6304383333333,-96.9807683333333,11.0,12.5,142,979.40,0.8,101,2.04,0.0,1006.93,60.8
2019-04-15 07:40,50.6304383333333,-96.98077,10.6,12.3,141,979.32,0.6,101,2.03,0.0,1006.86,60.8
2019-04-15 07:50,50.63044,-96.98077,11.1,14.0,137,979.20,0.7,100,2.01,0.0,1006.74,60.8
2019-04-15 08:00,50.63044,-96.9807716666667,12.0,14.2,143,979.18,0.8,100,2.01,0.0,1006.71,161.1
2019-04-15 08:10,50.6304416666667,-96.9807716666667,11.3,13.8,145,979.11,0.8,100,2.02,0.0,1006.64,161.1
2019-04-15 08:20,50.6304416666667,-96.9807716666667,11.4,13.6,145,979.01,0.8,100,2.02,0.0,1006.54,161.1
2019-04-15 08:30,50.6304433333333,-96.9807716666667,11.9,14.2,147,978.92,0.9,100,2.01,0.0,1006.46,161.1
2019-04-15 08:40,50.630445,-96.9807716666667,11.5,14.1,152,978.91,0.9,100,2.01,0.0,1006.43,161.1
2019-04-15 08:50,50.630445,-96.9807716666667,10.5,13.4,153,978.88,0.9,100,2.02,0.0,1006.39,161.1
2019-04-15 09:00,50.630445,-96.9807716666667,10.4,14.5,153,978.80,0.8,100,2.03,0.0,1006.31,360.0
2019-04-15 09:10,50.630445,-96.9807716666667,10.8,13.0,153,978.73,0.8,100,2.04,0.0,1006.24,360.0
2019-04-15 09:20,50.630445,-96.9807716666667,11.4,13.4,151,978.64,0.6,100,2.04,0.0,1006.17,360.0
2019-04-15 09:30,50.630445,-96.9807716666667,11.8,14.3,150,978.50,0.6,100,2.04,0.0,1006.04,360.0
2019-04-15 09:40,50.6304433333333,-96.9807716666667,12.3,15.2,146,978.33,0.5,100,2.03,0.0,1005.87,360.0
2019-04-15 09:50,50.630445,-96.9807716666667,12.9,14.5,145,978.30,0.5,100,2.02,0.0,1005.83,360.0
2019-04-15 10:00,50.6304333333333,-96.9807416666667,12.7,15.4,146,978.24,0.5,100,2.01,0.0,1005.77,119.2
2019-04-15 10:10,50.63044,-96.9807583333333,12.8,16.0,152,978.17,0.6,100,2.01,0.0,1005.69,119.2
2019-04-15 10:20,50.630455,-96.9807633333333,12.3,15.7,154,978.04,0.6,100,2.01,0.0,1005.55,119.2
2019-04-15 10:30,50.6304483333333,-96.980765,13.5,18.0,156,977.92,0.7,100,2.01,0.0,1005.42,119.2
2019-04-15 10:40,50.6304466666667,-96.980765,14.0,18.4,159,977.92,0.8,100,2.01,0.0,1005.41,119.2
2019-04-15 10:50,50.63045,-96.9807616666667,12.6,15.6,160,977.85,0.7,100,2.03,0.0,1005.35,119.2
2019-04-15 11:00,50.6304416666667,-96.9807616666667,12.4,17.3,164,977.82,0.8,100,2.05,0.0,1005.32,90.0
2019-04-15 11:10,50.63044,-96.9807733333333,13.4,17.6,167,977.75,1.3,97,2.06,0.0,1005.22,90.0
2019-04-15 11:20,50.6304416666667,-96.980775,13.8,20.0,164,977.70,1.3,97,2.06,0.0,1005.18,90.0
2019-04-15 11:30,50.6304466666667,-96.9807716666667,17.3,21.4,169,977.70,1.1,99,2.07,0.0,1005.19,90.0
2019-04-15 11:40,50.630445,-96.98077,15.3,19.4,171,977.82,0.4,101,2.08,0.0,1005.36,90.0
2019-04-15 11:50,50.6304483333333,-96.9807683333333,14.2,17.3,169,977.81,0.0,102,2.11,0.0,1005.37,90.0
2019-04-15 12:00,50.6304466666667,-96.9807666666667,13.5,16.0,166,977.84,-0.1,103,2.12,0.0,1005.39,12.6
2019-04-15 12:10,50.6304483333333,-96.9807666666667,14.2,18.5,161,977.76,-0.2,103,2.13,0.0,1005.32,12.6
2019-04-15 12:20,50.6304483333333,-96.9807666666667,16.4,19.5,162,977.71,-0.2,103,2.14,0.0,1005.26,12.6
2019-04-15 12:30,50.6304466666667,-96.9807666666667,17.4,24.2,164,977.68,-0.1,103,2.13,0.0,1005.22,12.6
2019-04-15 12:40,50.6304483333333,-96.9807666666667,16.3,20.0,165,977.73,-0.1,104,2.13,0.0,1005.27,12.6
2019-04-15 12:50,50.6304466666667,-96.9807666666667,18.0,22.0,163,977.55,-0.2,104,2.14,0.0,1005.09,12.6
2019-04-15 13:00,50.630415,-96.9807433333333,15.3,19.4,157,977.58,-0.3,104,2.17,0.0,1005.10,360.0
2019-04-15 13:10,50.630435,-96.9807733333333,16.3,19.7,148,977.54,-0.3,104,2.19,0.0,1005.06,360.0
2019-04-15 13:20,50.63044,-96.980775,17.0,21.4,148,977.55,-0.3,104,2.20,0.0,1005.08,360.0
2019-04-15 13:30,50.63044,-96.98077,17.0,20.2,148,977.53,-0.3,104,2.20,0.0,1005.10,360.0
2019-04-15 13:40,50.6304366666667,-96.980775,17.0,20.2,148,977.44,-0.3,104,2.20,0.0,1005.02,360.0
2019-04-15 13:50,50.6304433333333,-96.9807733333333,17.3,21.3,148,977.36,-0.2,104,2.21,0.0,1004.95,360.0
2019-04-15 14:00,50.630445,-96.98077,17.8,21.6,149,977.22,-0.2,104,2.22,0.0,1004.80,270.0
2019-04-15 14:10,50.630445,-96.9807716666667,18.0,23.0,148,977.13,-0.2,104,2.24,0.0,1004.71,270.0
2019-04-15 14:20,50.6304466666667,-96.9807716666667,17.8,21.7,150,977.12,-0.2,104,2.25,0.0,1004.70,270.0
2019-04-15 14:30,50.6304466666667,-96.98077,17.8,21.2,149,977.11,-0.1,104,2.26,0.0,1004.68,270.0
2019-04-15 14:40,50.6304466666667,-96.9807716666667,17.7,21.5,149,977.02,0.0,104,2.26,0.0,1004.59,270.0
2019-04-15 14:50,50.6304466666667,-96.9807716666667,17.4,21.5,150,976.95,-0.0,104,2.27,0.0,1004.53,270.0
2019-04-15 15:00,50.6304466666667,-96.9807716666667,16.5,20.9,151,976.93,-0.1,104,2.28,0.0,1004.51,270.0
2019-04-15 15:10,50.630445,-96.98077,15.8,19.2,150,976.93,0.0,104,2.28,0.0,1004.50,270.0
2019-04-15 15:20,50.6304416666667,-96.9807683333333,15.3,20.3,149,976.90,0.1,104,2.27,0.0,1004.47,270.0
2019-04-15 15:30,50.6304416666667,-96.9807666666667,16.2,20.0,150,976.84,0.1,104,2.27,0.0,1004.40,270.0
2019-04-15 15:40,50.6304416666667,-96.9807666666667,15.7,19.1,150,976.81,0.2,104,2.27,0.0,1004.37,270.0
2019-04-15 15:50,50.630415,-96.9807466666667,17.8,22.7,150,976.73,0.2,104,2.27,0.0,1004.28,270.0
2019-04-15 16:00,50.6304283333333,-96.9807666666667,18.3,21.9,150,976.81,0.1,104,2.28,0.0,1004.36,310.6
2019-04-15 16:10,50.6304266666667,-96.9807733333333,18.1,22.9,151,976.81,0.1,104,2.28,0.0,1004.37,310.6
2019-04-15 16:20,50.6304383333333,-96.9807766666667,18.6,22.6,150,976.75,0.1,104,2.29,0.0,1004.30,310.6
2019-04-15 16:30,50.6304383333333,-96.9807716666667,18.0,22.1,150,976.75,0.2,104,2.33,0.0,1004.28,310.6
2019-04-15 16:40,50.63044,-96.9807716666667,16.8,20.0,149,976.74,0.2,104,2.44,0.0,1004.28,310.6
2019-04-15 16:50,50.63044,-96.9807716666667,16.6,19.7,148,976.75,0.5,104,2.51,0.0,1004.28,310.6
2019-04-15 17:00,50.6304383333333,-96.98077,16.9,20.3,146,976.61,0.5,104,2.53,0.0,1004.13,90.0
2019-04-15 17:10,50.63044,-96.98077,15.9,18.7,147,976.68,0.7,104,2.57,0.0,1004.19,90.0
2019-04-15 17:20,50.63044,-96.9807716666667,14.8,17.6,148,976.70,0.8,104,2.62,0.0,1004.20,90.0
2019-04-15 17:30,50.63044,-96.9807733333333,14.8,17.9,144,976.69,1.0,104,2.66,0.0,1004.18,90.0
2019-04-15 17:40,50.63044,-96.9807733333333,14.4,17.0,142,976.67,0.9,104,2.72,0.0,1004.17,90.0
2019-04-15 17:50,50.63044,-96.980775,14.2,16.0,143,976.68,1.0,104,2.76,0.0,1004.17,90.0
2019-04-15 18:00,50.63044,-96.9807733333333,14.1,16.4,143,976.61,1.1,103,2.74,0.0,1004.09,142.0
2019-04-15 18:10,50.63044,-96.980775,15.2,17.8,142,976.47,1.3,102,2.73,0.0,1003.95,142.0
2019-04-15 18:20,50.63044,-96.9807733333333,13.9,16.2,144,976.38,1.3,101,2.77,0.0,1003.84,142.0
2019-04-15 18:30,50.63044,-96.9807733333333,12.6,15.5,146,976.35,1.4,101,2.78,0.0,1003.80,142.0
2019-04-15 18:40,50.63044,-96.9807716666667,11.7,14.3,149,976.33,1.8,101,2.74,0.0,1003.75,142.0
2019-04-15 18:50,50.630435,-96.98076,12.0,15.2,150,976.21,2.0,101,2.73,0.0,1003.62,142.0
2019-04-15 19:00,50.6304416666667,-96.9807583333333,11.2,13.9,147,976.19,1.9,101,2.71,0.0,1003.59,23.5
2019-04-15 19:10,50.6304416666667,-96.98076,9.1,11.2,150,976.16,1.8,101,2.73,0.0,1003.56,23.5
2019-04-15 19:20,50.6304416666667,-96.9807616666667,9.8,11.7,148,976.13,1.9,101,2.73,0.0,1003.52,23.5
2019-04-15 19:30,50.6304433333333,-96.9807633333333,10.3,12.0,148,976.11,2.1,101,2.70,0.0,1003.49,23.5
2019-04-15 19:40,50.6304433333333,-96.9807633333333,10.3,12.9,152,976.08,2.4,101,2.66,0.0,1003.44,23.5
2019-04-15 19:50,50.6304566666667,-96.9807783333333,11.6,18.4,153,975.99,2.9,101,2.63,0.0,1003.32,23.5
2019-04-15 20:00,50.630445,-96.98076,13.0,16.1,155,975.90,3.6,100,2.60,0.0,1003.18,90.0
2019-04-15 20:10,50.630445,-96.98076,12.8,16.2,154,975.89,3.8,100,2.59,0.0,1003.16,90.0
2019-04-15 20:20,50.6304483333333,-96.9807616666667,14.0,17.8,161,975.86,4.0,100,2.62,0.0,1003.12,90.0
2019-04-15 20:30,50.630445,-96.98077,14.7,18.6,170,975.86,5.1,99,2.62,0.0,1003.04,90.0
2019-04-15 20:40,50.6304466666667,-96.9807683333333,13.3,17.0,173,975.90,5.1,99,2.61,0.0,1003.07,90.0
2019-04-15 20:50,50.6304483333333,-96.9807683333333,13.8,18.2,180,975.98,5.4,99,2.66,0.0,1003.14,90.0
2019-04-15 21:00,50.630445,-96.980765,17.0,23.7,175,975.86,5.6,98,2.66,0.0,1003.01,90.0
2019-04-15 21:10,50.630445,-96.9807616666667,13.2,18.6,174,975.96,5.7,98,2.68,0.0,1003.10,90.0
2019-04-15 21:20,50.630445,-96.9807616666667,14.1,18.9,161,975.99,5.6,97,2.71,0.0,1003.13,90.0
2019-04-15 21:30,50.6304466666667,-96.9807633333333,12.4,18.4,158,976.08,4.9,99,2.74,0.0,1003.24,90.0
2019-04-15 21:40,50.6304466666667,-96.9807633333333,13.8,18.9,164,976.08,5.4,94,2.75,0.0,1003.20,90.0
2019-04-15 21:50,50.6304466666667,-96.9807633333333,10.9,13.6,148,976.11,4.7,99,2.71,0.0,1003.23,90.0
2019-04-15 22:00,50.6304466666667,-96.9807633333333,11.8,14.4,145,976.04,4.5,99,2.73,0.0,1003.15,347.4
2019-04-15 22:10,50.6304466666667,-96.9807633333333,11.8,13.3,145,975.92,4.6,99,2.71,0.0,1003.02,347.4
2019-04-15 22:20,50.6304466666667,-96.980765,10.1,12.1,149,975.93,4.1,100,2.69,0.0,1002.99,347.4
2019-04-15 22:30,50.6304466666667,-96.980765,9.4,12.1,127,975.83,4.3,100,2.68,0.0,1002.88,347.4
2019-04-15 22:40,50.6304466666667,-96.980765,9.5,12.1,128,975.72,4.2,100,2.72,0.0,1002.76,347.4
2019-04-15 22:50,50.6304383333333,-96.9807733333333,9.5,13.1,128,975.58,4.4,100,2.71,0.0,1002.59,347.4
2019-04-15 23:00,50.6304333333333,-96.9807716666667,11.1,14.1,136,975.44,4.1,100,2.69,0.0,1002.46,228.3
2019-04-15 23:10,50.6304333333333,-96.98077,15.0,16.3,145,975.39,5.0,99,2.70,0.0,1002.37,228.3
2019-04-15 23:20,50.6304366666667,-96.98077,11.6,15.4,152,975.57,4.7,99,2.69,0.0,1002.61,228.3
2019-04-15 23:30,50.6304383333333,-96.98077,11.1,13.2,160,975.73,4.1,100,2.71,0.0,1002.78,228.3
